Regional Weather Roundup
Issued by NWS

Home | Current Version | Previous Version | Graphics & Text | Print | Product List | Glossary On
Versions: 1 2 3 4 5 6 7 8 9 10 11 12 13 14 15 16 17 18 19 20 21 22 23 24 25 26 27 28 29 30 31 32 33 34 35 36 37 38 39 40 41 42 43 44 45 46 47 48 49 50
000
ASUS43 KIND 060359
RWRIN

WEATHER ROUNDUP FOR INDIANA
NATIONAL WEATHER SERVICE INDIANAPOLIS IN
1100 PM EST FRI FEB 05 2016

NOTE: "FAIR" INDICATES FEW OR NO CLOUDS BELOW 12,000 FEET WITH NO
SIGNIFICANT WEATHER AND/OR OBSTRUCTIONS TO VISIBILITY.

* - STATION DOES NOT REPORT WEATHER SUCH AS PRECIPITATION OR FOG.

+ - STATION NOT QUALITY CONTROLLED BY THE NATIONAL WEATHER SERVICE.
    USE DATA WITH CAUTION...ESPECIALLY DEWPOINT AND RELATIVE
    HUMIDITY OBSERVATIONS.

INZ001>003-010>013-019-020-060500-
NORTHWEST INDIANA

CITY           SKY/WX    TMP DP  RH WIND       PRES   REMARKS
GARY /AIRPORT/ PTCLDY    28  23  80 SW3       30.34F
RENSSELAER +   CLOUDY    27  21  80 CALM      30.34F

$$

LMZ046-743>745-060500-
SOUTHERN LAKE MICHIGAN

STATION/POSITION TIME  TEMP    WIND        PRES    WAVE
                       AIR SEA DIR/SP/G            HT
                 (UTC) (F)     (DEG/KT/KT) (MB)    (FT)
BURNS HARBOR     0300   30     230/  7/  8 1028.1S
MICHIGAN CITY    0300   29     180/  5/  6   N/A

$$

INZ004-005-014>016-021>024-060500-
NORTH CENTRAL INDIANA

CITY           SKY/WX    TMP DP  RH WIND       PRES   REMARKS
GOSHEN         PTCLDY    25  21  85 W6        30.32S WCI  18
PERU/GRISSOM   PTCLDY    26  24  91 W7        30.32S WCI  18
SOUTH BEND     MOCLDY    25  21  85 SW5       30.33F WCI  19

$$

INZ006>009-017-018-025>027-060500-
NORTHEAST INDIANA

CITY           SKY/WX    TMP DP  RH WIND       PRES   REMARKS
ANGOLA *+      MOCLDY    28  25  86 W3        30.30R
FORT WAYNE     CLOUDY    31  26  82 W9        30.33S WCI  23

$$

INZ028-029-035-036-043>045-051>053-060500-
WEST CENTRAL INDIANA

CITY           SKY/WX    TMP DP  RH WIND       PRES   REMARKS
GREENCASTLE +  CLOUDY    27  18  69 CALM      30.36S
LAFAYETTE      MOCLDY    26  21  81 CALM      30.36F
TERRE HAUTE    CLOUDY    23  18  81 E3        30.37F

$$

INZ030>032-037>040-046>048-054>057-064-065-060500-
CENTRAL INDIANA

CITY           SKY/WX    TMP DP  RH WIND       PRES   REMARKS
GREENWOOD *+   CLOUDY    27  25  93 CALM      30.36R
INDIANAPOLIS   CLOUDY    25  20  81 W5        30.34R WCI  19
-EAGLE CREEK   CLOUDY    26  21  81 W3        30.34S
KOKOMO *+      CLOUDY    27  21  80 NW8       30.34S WCI  18
MT COMFORT *+  CLEAR     25  23  93 SW3       30.34S
SHELBYVILLE    CLEAR     27  23  85 W3        30.34S

$$

INZ033-034-041-042-049-050-058-059-060500-
EAST CENTRAL INDIANA

CITY           SKY/WX    TMP DP  RH WIND       PRES   REMARKS
MUNCIE         CLOUDY    26  21  81 W5        30.33R WCI  20

$$

INZ060-061-067>069-081>083-085>088-060500-
SOUTHWEST INDIANA

CITY           SKY/WX    TMP DP  RH WIND       PRES   REMARKS
EVANSVILLE     CLEAR     34  23  64 N5        30.38S WCI  30
HUNTINGBURG *+ CLEAR     30  21  69 N3        30.37S

$$

INZ062-063-066-070>080-084-089>092-060500-
SOUTH CENTRAL AND SOUTHEAST INDIANA

CITY           SKY/WX    TMP DP  RH WIND       PRES   REMARKS
BLOOMINGTON    CLEAR     26  21  81 CALM      30.35S
MADISON *+     PTCLDY    32  23  69 CALM      30.36S
SEYMOUR +      CLEAR     32  23  69 N5        30.36S WCI  27

$$




USA.gov is the U.S. government's official web portal to all federal, state and local government web resources and services.